PBO Station Position Time Series. Reference Frame : NAM14
Format Version,1.1.1
4-character ID,P553
Station name,Grapevine_CS2005
Begin Date, 2005-09-11
End Date, 2023-06-26
Release Date, 2023-06-27
Reference position, 34.8350943283 North Latitude, -118.8789686214 East Longitude, 1335.84610 meters elevation,
Date, North (mm), East (mm), Vertical (mm), North Std. Deviation (mm), East Std. Deviation (mm),              Vertical Std. Deviation (mm), Quality,
2005-09-11,0.00, 0.00, 0.00, 2.06, 1.64, 7.58, repro,
2005-09-12,-1.22, 0.82, 0.42, 2.11, 1.67, 7.69, repro,
2005-09-13,0.47, 0.10, 4.07, 2.14, 1.70, 7.88, repro,
2005-09-14,-0.71, 0.62, 2.79, 2.07, 1.68, 7.73, repro,
2005-09-15,0.20, 0.69, -0.93, 2.08, 1.69, 7.78, repro,
2005-09-16,-1.20, 1.86, 1.67, 2.08, 1.68, 7.73, repro,
2005-09-17,-1.38, 2.13, 3.79, 1.99, 1.62, 7.35, repro,
2005-09-18,-0.62, -0.23, 5.71, 1.99, 1.61, 7.36, repro,
2005-09-19,0.83, 1.35, 0.97, 2.08, 1.69, 7.89, repro,
2005-09-20,2.01, 1.23, -3.93, 2.03, 1.66, 7.61, repro,
2005-09-21,0.61, -0.23, -8.52, 2.02, 1.67, 7.53, repro,
2005-09-22,-0.75, 0.59, -1.79, 1.98, 1.62, 7.34, repro,
2005-09-23,0.54, -0.62, 7.59, 1.99, 1.62, 7.34, repro,
2005-09-24,2.48, -1.12, 1.39, 2.00, 1.65, 7.46, repro,
2005-09-25,0.69, 1.26, 2.83, 2.01, 1.67, 7.58, repro,
2005-09-26,3.15, -1.40, -5.51, 2.02, 1.69, 7.61, repro,
2005-09-27,0.21, 1.36, 2.06, 2.03, 1.70, 7.64, repro,
2005-09-28,0.83, 0.45, 9.37, 2.06, 1.64, 7.52, repro,
2005-09-29,1.21, 0.34, 6.65, 2.06, 1.63, 7.52, repro,
2005-09-30,1.53, 0.21, 6.21, 1.98, 1.62, 7.38, repro,
2005-10-01,-0.54, 0.17, 5.58, 2.00, 1.63, 7.46, repro,
2005-10-02,1.36, -1.06, -9.15, 2.01, 1.67, 7.61, repro,
2005-10-03,1.94, -3.20, 4.36, 2.01, 1.66, 7.52, repro,
2005-10-04,1.01, 0.84, 0.77, 2.06, 1.68, 7.67, repro,
2005-10-05,1.12, -0.49, 2.97, 2.06, 1.64, 7.70, repro,
2005-10-06,0.73, -0.66, 3.95, 2.00, 1.62, 7.38, repro,
2005-10-07,0.49, -0.15, 8.05, 2.05, 1.64, 7.63, repro,
2005-10-08,0.86, 0.32, 7.93, 2.00, 1.61, 7.36, repro,
2005-10-09,0.93, -0.26, 5.15, 2.00, 1.61, 7.33, repro,
2005-10-10,1.82, -1.00, 3.34, 2.06, 1.63, 7.65, repro,
2005-10-11,0.16, -0.69, 5.22, 2.01, 1.65, 7.52, repro,
2005-10-12,0.51, -0.71, 5.63, 2.01, 1.66, 7.51, repro,
2005-10-13,2.04, -0.12, 5.18, 2.03, 1.68, 7.47, repro,
2005-10-14,2.20, 0.56, 7.58, 2.05, 1.64, 7.69, repro,
2005-10-15,2.23, -0.67, 10.80, 2.09, 1.69, 7.85, repro,
2005-10-16,2.47, 0.85, 8.10, 2.04, 1.66, 7.57, repro,
2005-10-17,0.13, 3.28, 10.87, 2.05, 1.67, 7.67, repro,
2005-10-18,1.68, 0.16, 10.27, 2.12, 1.78, 8.13, repro,
2005-10-19,1.16, -0.19, 4.73, 2.15, 1.72, 8.16, repro,
2005-10-20,0.62, -0.07, 5.69, 2.14, 1.67, 7.90, repro,
2005-10-21,1.13, -0.03, 8.23, 2.19, 1.76, 8.43, repro,
2005-10-22,1.29, -0.86, 4.31, 1.99, 1.62, 7.38, repro,
2005-10-23,1.26, -1.18, 1.88, 2.01, 1.67, 7.55, repro,
2005-10-24,0.75, 0.48, 1.29, 2.05, 1.73, 7.78, repro,
2005-10-25,0.18, -0.06, 6.76, 2.02, 1.68, 7.58, repro,
2005-10-26,-0.07, -1.54, 10.44, 2.05, 1.75, 7.80, repro,
2005-10-27,2.54, -3.15, 2.69, 2.05, 1.71, 7.73, repro,
2005-10-28,0.78, -2.07, 2.80, 2.00, 1.62, 7.42, repro,
2005-10-29,1.11, -0.40, 1.29, 2.01, 1.66, 7.59, repro,
2005-10-30,-0.18, -0.04, 0.97, 2.00, 1.62, 7.40, repro,
2005-10-31,3.66, 0.97, 0.32, 2.14, 1.75, 7.96, repro,
2005-11-01,3.17, 0.25, 3.25, 2.16, 1.82, 8.12, repro,
2005-11-02,5.35, 2.47, 6.79, 2.10, 1.79, 7.89, repro,
2005-11-03,2.36, -2.36, -3.55, 2.04, 1.71, 7.59, repro,
2005-11-04,3.25, -0.04, 4.19, 2.09, 1.79, 7.83, repro,
2005-11-05,2.23, -0.01, 1.74, 2.09, 1.82, 7.91, repro,
2005-11-06,1.75, 0.63, 6.89, 2.08, 1.82, 7.90, repro,
2005-11-07,3.01, -0.24, 4.23, 2.09, 1.83, 7.95, repro,
2005-11-08,-0.91, 1.70, 11.31, 2.08, 1.76, 7.83, repro,
2005-11-09,0.63, 4.05, 5.99, 2.14, 1.86, 8.08, repro,
2005-11-10,-2.82, 2.11, -8.69, 2.31, 1.96, 8.83, repro,
2005-11-11,2.43, -0.87, -3.03, 2.31, 1.93, 8.61, repro,
2005-11-12,-0.46, -0.17, 5.01, 1.97, 1.69, 7.41, repro,
2005-11-13,1.87, -0.16, 1.48, 2.16, 1.81, 8.08, repro,
2005-11-14,1.13, -0.52, -2.23, 2.09, 1.78, 7.83, repro,
2005-11-15,1.93, -0.08, -1.54, 2.04, 1.67, 7.59, repro,
2005-11-16,2.95, 0.79, -2.38, 2.04, 1.71, 7.68, repro,
2005-11-17,2.11, -0.60, -3.37, 1.98, 1.62, 7.39, repro,
2005-11-18,1.83, -0.42, -2.96, 1.98, 1.63, 7.44, repro,
2005-11-19,2.13, -1.14, 1.14, 1.97, 1.63, 7.42, repro,
2005-11-20,1.36, 0.33, -3.14, 2.03, 1.66, 7.52, repro,
2005-11-21,1.88, -1.44, 4.30, 2.08, 1.71, 7.88, repro,
2005-11-22,0.52, -0.68, 0.68, 2.03, 1.73, 7.77, repro,
2005-11-23,0.92, -0.36, 3.31, 2.04, 1.71, 7.75, repro,
2005-11-24,1.00, -0.44, 6.03, 1.99, 1.63, 7.47, repro,
2005-11-25,1.75, -0.62, 5.84, 2.03, 1.67, 7.58, repro,
2005-11-26,3.05, -2.08, -1.34, 2.08, 1.75, 7.81, repro,
2005-11-27,0.73, -0.74, 2.13, 2.04, 1.70, 7.74, repro,
2005-11-28,2.63, -0.98, -6.79, 2.08, 1.74, 7.87, repro,
2005-11-29,5.79, -5.03, -6.68, 2.06, 1.71, 7.74, repro,
2005-11-30,1.69, -2.29, -7.35, 2.12, 1.79, 8.12, repro,
2005-12-01,1.64, 0.79, 1.94, 2.00, 1.64, 7.42, repro,
2005-12-02,-2.35, 4.17, 4.31, 2.00, 1.65, 7.44, repro,
2005-12-03,-0.08, -0.77, 8.16, 2.00, 1.65, 7.46, repro,
2005-12-04,0.98, -0.45, -3.86, 2.02, 1.66, 7.51, repro,
2005-12-05,1.82, -0.26, -4.52, 2.00, 1.66, 7.45, repro,
2005-12-06,1.71, -0.51, -1.56, 2.06, 1.68, 7.55, repro,
2005-12-07,1.38, -0.90, 0.52, 2.03, 1.69, 7.61, repro,
2005-12-08,1.98, -0.43, -0.72, 2.02, 1.69, 7.61, repro,
2005-12-09,1.86, -1.10, 2.05, 2.00, 1.66, 7.50, repro,
2005-12-10,2.21, -2.80, 4.68, 2.00, 1.66, 7.46, repro,
2005-12-11,2.07, -1.55, 7.02, 2.00, 1.63, 7.45, repro,
2005-12-12,1.67, -0.37, 1.76, 2.01, 1.66, 7.52, repro,
2005-12-13,1.25, -0.12, 2.24, 1.99, 1.65, 7.48, repro,
2005-12-14,2.03, -1.21, 2.15, 2.01, 1.69, 7.59, repro,
2005-12-15,2.51, -0.73, -1.18, 2.03, 1.67, 7.58, repro,
2005-12-16,-0.07, -1.08, 3.88, 2.07, 1.64, 7.59, repro,
2005-12-17,1.43, -2.45, 0.22, 2.13, 1.79, 7.90, repro,
2005-12-18,2.15, -1.99, 1.06, 2.01, 1.76, 7.54, repro,
2005-12-19,2.87, -0.69, -6.96, 2.17, 1.87, 8.08, repro,
2005-12-20,2.70, -0.81, -6.12, 2.07, 1.87, 7.82, repro,
2005-12-21,2.77, -1.55, 0.14, 2.09, 1.80, 7.85, repro,
2005-12-22,0.35, -0.05, 2.44, 2.03, 1.76, 7.57, repro,
2005-12-23,2.19, -0.28, -5.41, 2.08, 1.76, 7.76, repro,
2005-12-24,3.67, -2.04, 5.03, 2.27, 1.94, 8.44, repro,
2005-12-25,3.37, -1.05, 4.50, 2.17, 1.87, 8.01, repro,
2005-12-26,1.14, -4.62, 4.49, 2.01, 1.67, 7.42, repro,
2005-12-27,0.54, -2.19, -4.87, 2.16, 1.83, 8.01, repro,
2005-12-28,2.69, -2.15, 0.27, 2.07, 1.72, 7.61, repro,
2005-12-29,0.91, -0.48, 5.01, 2.28, 1.98, 8.82, repro,
2005-12-30,1.04, -2.68, 8.38, 2.22, 1.84, 8.21, repro,
2005-12-31,1.00, -3.75, 1.43, 2.21, 1.89, 8.24, repro,
2006-01-01,0.90, -0.47, -0.74, 2.20, 1.85, 8.30, repro,
2006-01-02,-5.87, -2.52, 2.46, 2.07, 1.74, 7.67, repro,
2006-01-03,0.54, -2.98, 0.92, 2.19, 1.86, 8.15, repro,
2006-01-04,2.42, -0.36, 1.75, 2.21, 2.04, 8.25, repro,
2006-01-05,3.74, 0.66, 3.14, 2.07, 1.78, 7.63, repro,
2006-01-06,3.26, -2.13, 1.63, 2.22, 1.94, 8.40, repro,
2006-01-07,0.66, 0.25, 3.76, 2.06, 1.71, 7.56, repro,
2006-01-08,1.78, -0.52, 4.25, 2.20, 1.89, 8.15, repro,
2006-01-09,2.80, -1.49, 1.38, 2.21, 1.89, 8.17, repro,
2006-01-10,1.91, -0.02, 4.09, 2.19, 1.89, 8.13, repro,
2006-01-11,3.89, -0.38, 10.24, 2.14, 1.81, 7.94, repro,
2006-01-12,2.24, -1.24, 1.92, 2.09, 1.77, 7.66, repro,
2006-01-13,-2.15, 0.02, 7.26, 2.23, 1.92, 8.41, repro,
2006-01-14,-1.79, 0.24, 2.73, 2.07, 1.72, 7.65, repro,
2006-01-15,1.56, -2.12, 5.37, 2.02, 1.67, 7.47, repro,
2006-01-16,2.49, -0.66, 3.76, 2.14, 1.84, 7.83, repro,
2006-01-17,2.68, -0.85, 3.02, 2.07, 1.78, 7.64, repro,
2006-01-18,-0.98, 1.08, 5.28, 2.01, 1.64, 7.42, repro,
2006-01-19,1.07, -2.78, -5.12, 2.09, 1.69, 7.72, repro,
2006-01-20,1.63, -1.42, -4.45, 2.06, 1.65, 7.66, repro,
2006-01-21,0.98, -0.04, 2.80, 2.05, 1.66, 7.47, repro,
2006-01-22,2.41, -0.80, -1.68, 2.00, 1.62, 7.32, repro,
2006-01-23,2.80, -0.86, 2.49, 1.99, 1.60, 7.28, repro,
2006-01-24,2.25, -1.90, 5.41, 2.03, 1.64, 7.51, repro,
2006-01-25,0.75, -1.35, 2.42, 1.93, 1.58, 7.20, repro,
2006-01-26,2.30, -1.00, -4.64, 1.94, 1.59, 7.24, repro,
2006-01-27,2.16, -2.35, -1.78, 1.94, 1.58, 7.20, repro,
2006-01-28,2.92, -0.10, 1.83, 1.93, 1.58, 7.20, repro,
2006-01-29,3.96, -1.13, -0.86, 1.94, 1.58, 7.22, repro,
2006-01-30,1.24, -1.41, -1.15, 1.95, 1.57, 7.24, repro,
2006-01-31,2.08, -1.83, -2.54, 1.95, 1.58, 7.29, repro,
2006-02-01,3.55, -2.63, 8.16, 1.97, 1.59, 7.27, repro,
2006-02-02,0.36, -3.53, 3.01, 1.99, 1.62, 7.45, repro,
2006-02-03,0.41, -2.61, 0.28, 1.95, 1.58, 7.28, repro,
2006-02-04,1.16, -2.49, -0.05, 1.96, 1.58, 7.33, repro,
2006-02-05,0.15, -1.64, 1.55, 1.96, 1.57, 7.31, repro,
2006-02-06,1.32, -2.70, -0.91, 1.96, 1.57, 7.29, repro,
2006-02-07,2.43, -1.45, -4.57, 1.95, 1.58, 7.34, repro,
2006-02-08,2.51, -0.91, -2.99, 1.95, 1.57, 7.34, repro,
2006-02-09,2.19, -1.32, -2.01, 2.02, 1.59, 7.56, repro,
2006-02-10,1.52, -1.42, -5.73, 2.11, 1.61, 7.74, repro,
2006-02-11,2.01, -1.44, -5.50, 1.98, 1.58, 7.40, repro,
2006-02-12,1.65, -1.45, -4.95, 2.01, 1.61, 7.48, repro,
2006-02-13,2.60, -0.89, -0.09, 1.95, 1.58, 7.34, repro,
2006-02-14,0.73, -0.93, 9.50, 1.96, 1.56, 7.32, repro,
2006-02-15,-0.62, -0.81, -1.01, 2.00, 1.61, 7.46, repro,
2006-02-16,1.65, -0.83, -1.16, 1.97, 1.57, 7.35, repro,
2006-02-17,1.79, -1.05, -1.26, 2.03, 1.58, 7.52, repro,
2006-02-18,2.22, -1.85, 3.85, 1.96, 1.57, 7.30, repro,
2006-02-19,1.69, -1.46, -2.45, 1.94, 1.57, 7.27, repro,
2006-02-20,1.81, -1.06, 3.46, 1.95, 1.58, 7.31, repro,
2006-02-21,1.95, -0.92, 1.32, 1.97, 1.57, 7.34, repro,
2006-02-22,2.24, -0.48, 8.34, 1.98, 1.59, 7.40, repro,
2006-02-23,2.22, -0.58, 2.39, 1.96, 1.58, 7.36, repro,
2006-02-24,1.14, -0.65, 3.58, 1.93, 1.58, 7.28, repro,
2006-02-25,0.67, -1.22, 0.48, 1.95, 1.59, 7.27, repro,
2006-02-26,0.20, -0.31, -7.37, 1.96, 1.59, 7.30, repro,
2006-02-27,-5.23, -0.31, -7.08, 1.99, 1.62, 7.46, repro,
2006-02-28,0.42, -5.39, -1.22, 2.03, 1.63, 7.55, repro,
2006-03-01,1.67, -0.95, 2.08, 2.05, 1.67, 7.55, repro,
2006-03-02,1.86, -0.52, -4.88, 1.94, 1.59, 7.28, repro,
2006-03-03,-2.67, -2.49, -3.72, 2.04, 1.61, 7.63, repro,
2006-03-04,1.81, -1.73, 1.59, 1.95, 1.60, 7.32, repro,
2006-03-05,2.10, 0.43, 3.40, 1.95, 1.61, 7.36, repro,
2006-03-06,-2.83, -1.91, -9.96, 1.94, 1.61, 7.36, repro,
2006-03-07,1.17, -0.82, 4.93, 1.93, 1.59, 7.28, repro,
2006-03-08,0.99, -1.16, 0.93, 1.94, 1.60, 7.35, repro,
2006-03-09,2.22, -2.15, 8.12, 1.94, 1.60, 7.28, repro,
2006-03-10,0.99, -1.02, 4.39, 1.95, 1.61, 7.31, repro,
2006-03-11,1.43, -0.44, 5.66, 1.97, 1.61, 7.36, repro,
2006-03-12,1.37, -2.54, 3.89, 1.97, 1.62, 7.41, repro,
2006-03-13,0.48, 0.25, -2.62, 1.98, 1.61, 7.38, repro,
2006-03-14,1.99, 0.09, -4.18, 2.01, 1.66, 7.57, repro,
2006-03-15,-0.02, -0.85, 0.27, 1.96, 1.62, 7.31, repro,
2006-03-16,0.49, -0.94, -7.96, 2.07, 1.70, 7.71, repro,
2006-03-17,1.30, 0.92, -2.77, 2.03, 1.67, 7.55, repro,
2006-03-18,2.00, -1.26, 0.03, 1.97, 1.63, 7.35, repro,
2006-03-19,-0.02, -0.98, -4.61, 1.96, 1.63, 7.36, repro,
2006-03-20,1.34, -0.54, 1.86, 1.98, 1.65, 7.45, repro,
2006-03-21,1.71, -2.25, -1.51, 1.97, 1.65, 7.43, repro,
2006-03-22,0.83, -1.23, -4.98, 1.98, 1.64, 7.44, repro,
2006-03-23,2.77, -0.66, -2.27, 2.02, 1.67, 7.55, repro,
2006-03-24,1.72, 0.59, 3.01, 2.02, 1.66, 7.54, repro,
2006-03-25,1.39, -1.68, 7.56, 2.03, 1.67, 7.64, repro,
2006-03-26,1.43, -1.32, 4.43, 2.02, 1.67, 7.63, repro,
2006-03-27,1.17, -1.41, 7.10, 2.04, 1.67, 7.69, repro,
2006-03-28,-2.79, -1.32, -2.47, 1.95, 1.64, 7.39, repro,
2006-03-29,0.17, -1.77, 5.61, 1.94, 1.66, 7.42, repro,
2006-03-30,1.83, -0.71, 5.15, 1.90, 1.61, 7.23, repro,
2006-03-31,1.42, -1.05, 1.19, 1.91, 1.62, 7.32, repro,
2006-04-01,2.87, -3.00, 3.57, 1.91, 1.62, 7.33, repro,
2006-04-02,1.87, -1.86, -2.82, 1.92, 1.61, 7.34, repro,
2006-04-03,-3.88, 1.46, -2.77, 1.92, 1.62, 7.37, repro,
2006-04-04,-1.08, 0.12, 6.62, 1.95, 1.64, 7.52, repro,
2006-04-05,0.06, -2.86, 17.23, 1.95, 1.66, 7.56, repro,
2006-04-06,0.55, -2.40, -2.81, 1.94, 1.65, 7.46, repro,
2006-04-07,-1.16, -1.30, 0.83, 2.01, 1.67, 7.60, repro,
2006-04-08,2.51, -0.87, -1.68, 2.06, 1.66, 7.83, repro,
2006-04-09,2.24, -2.34, 1.29, 1.93, 1.61, 7.37, repro,
2006-04-10,1.15, -2.69, 0.95, 1.90, 1.60, 7.25, repro,
2006-04-11,2.85, -2.41, 5.43, 1.98, 1.64, 7.64, repro,
2006-04-12,0.15, -0.97, -5.52, 1.97, 1.63, 7.61, repro,
2006-04-13,3.34, -2.15, -2.07, 1.91, 1.61, 7.35, repro,
2006-04-14,2.44, -0.51, 1.46, 1.93, 1.61, 7.41, repro,
2006-04-15,2.09, -0.44, 2.94, 1.96, 1.62, 7.44, repro,
2006-04-16,3.54, -0.93, -0.52, 1.91, 1.61, 7.31, repro,
2006-04-17,1.58, -2.48, 7.80, 1.91, 1.61, 7.29, repro,
2006-04-18,2.28, -2.04, 1.52, 1.94, 1.64, 7.50, repro,
2006-04-19,2.17, -1.03, -1.89, 1.92, 1.61, 7.35, repro,
2006-04-20,2.91, -1.28, 4.30, 1.94, 1.65, 7.53, repro,
2006-04-21,1.44, -3.22, 1.62, 1.91, 1.61, 7.33, repro,
2006-04-22,1.89, -1.96, 7.06, 1.91, 1.61, 7.30, repro,
2006-04-23,1.95, -1.22, 2.66, 1.94, 1.66, 7.48, repro,
2006-04-24,2.41, -1.03, 0.95, 1.94, 1.65, 7.45, repro,
2006-04-25,1.66, -1.31, -0.62, 1.97, 1.73, 7.68, repro,
2006-04-26,1.65, -2.28, 1.65, 1.95, 1.66, 7.49, repro,
2006-04-27,0.92, -2.67, 4.36, 1.99, 1.68, 7.55, repro,
2006-04-28,1.69, -2.61, -1.43, 1.97, 1.62, 7.39, repro,
2006-04-29,-0.32, -2.08, 1.29, 1.92, 1.60, 7.32, repro,
2006-04-30,-0.64, -1.26, 3.01, 1.91, 1.60, 7.30, repro,
2006-05-01,0.97, -1.63, -5.00, 1.92, 1.60, 7.36, repro,
2006-05-02,1.66, -1.38, -3.80, 1.93, 1.61, 7.36, repro,
2006-05-03,0.23, -2.00, 3.22, 1.92, 1.61, 7.31, repro,
2006-05-04,0.57, -2.53, -2.44, 1.92, 1.61, 7.36, repro,
2006-05-05,2.20, -2.10, -1.56, 1.92, 1.61, 7.36, repro,
2006-05-06,2.72, -2.61, -2.06, 1.92, 1.60, 7.35, repro,
2006-05-07,2.31, -3.29, 5.52, 1.95, 1.65, 7.48, repro,
2006-05-08,2.79, -1.89, 0.59, 1.93, 1.62, 7.37, repro,
2006-05-09,0.32, -2.21, 3.93, 1.98, 1.63, 7.50, repro,
2006-05-10,1.41, -1.93, 3.87, 1.92, 1.61, 7.37, repro,
2006-05-11,1.50, -3.10, 3.33, 1.92, 1.61, 7.39, repro,
2006-05-12,-0.23, -1.41, -0.95, 1.91, 1.61, 7.34, repro,
2006-05-13,1.76, -4.26, 4.10, 1.92, 1.61, 7.34, repro,
2006-05-14,2.53, -2.75, 4.67, 1.98, 1.64, 7.53, repro,
2006-05-15,1.49, -2.13, 0.96, 1.92, 1.61, 7.38, repro,
2006-05-16,0.91, -0.61, 5.12, 1.95, 1.65, 7.48, repro,
2006-05-17,1.71, -2.33, 3.37, 1.96, 1.65, 7.50, repro,
2006-05-18,0.41, -2.33, 6.78, 2.02, 1.68, 7.74, repro,
2006-05-19,-0.04, -1.74, 13.45, 2.07, 1.66, 7.73, repro,
2006-05-20,-1.99, -3.20, 9.69, 2.01, 1.64, 7.62, repro,
2006-05-21,2.38, -2.58, 6.33, 2.04, 1.64, 7.64, repro,
2006-05-22,0.22, -1.87, 6.06, 2.01, 1.68, 7.64, repro,
2006-05-23,0.69, -2.74, 1.77, 2.00, 1.63, 7.52, repro,
2006-05-24,0.34, -2.26, 6.74, 2.01, 1.66, 7.63, repro,
2006-05-25,-0.53, -2.09, 11.83, 2.11, 1.69, 7.93, repro,
2006-05-26,0.71, -2.01, 4.36, 2.08, 1.66, 7.86, repro,
2006-05-27,-1.17, -2.21, 9.09, 2.00, 1.63, 7.52, repro,
2006-05-28,0.30, -2.25, 8.52, 1.99, 1.63, 7.49, repro,
2006-05-29,0.31, -2.03, 8.42, 2.01, 1.66, 7.63, repro,
2006-05-30,1.53, -1.76, 7.22, 2.04, 1.66, 7.66, repro,
2006-05-31,0.37, -1.84, 7.15, 2.09, 1.71, 7.88, repro,
2006-06-01,0.21, -2.37, 0.01, 2.04, 1.66, 7.72, repro,
2006-06-02,-1.40, -1.87, 5.71, 2.18, 1.74, 8.20, repro,
2006-06-03,-1.54, -1.37, 8.20, 2.05, 1.68, 7.74, repro,
2006-06-04,-1.86, -2.91, 6.22, 2.04, 1.66, 7.67, repro,
2006-06-05,-1.11, -1.74, 10.76, 2.08, 1.69, 7.83, repro,
2006-06-06,-2.33, -1.79, 6.71, 2.09, 1.69, 7.90, repro,
2006-06-07,0.06, -2.43, 4.34, 2.13, 1.72, 7.96, repro,
2006-06-08,0.69, -1.19, 8.52, 1.98, 1.62, 7.45, repro,
2006-06-09,0.50, -2.15, 9.22, 2.06, 1.68, 7.74, repro,
2006-06-10,-1.09, -2.02, 10.50, 2.01, 1.64, 7.56, repro,
2006-06-11,0.58, -2.23, 8.92, 2.05, 1.68, 7.81, repro,
2006-06-12,0.84, -0.74, 11.99, 2.06, 1.72, 7.81, repro,
2006-06-13,-0.46, -1.98, 6.94, 2.02, 1.65, 7.62, repro,
2006-06-14,0.42, -1.51, 5.28, 1.99, 1.62, 7.49, repro,
2006-06-15,2.92, -2.16, 7.11, 2.05, 1.65, 7.64, repro,
2006-06-16,2.34, -2.60, 12.31, 2.01, 1.64, 7.56, repro,
2006-06-17,0.64, -1.35, 8.87, 2.05, 1.68, 7.72, repro,
2006-06-18,1.27, -3.52, 18.53, 2.05, 1.71, 7.82, repro,
2006-06-19,2.24, -3.80, 9.15, 2.00, 1.65, 7.68, repro,
2006-06-20,0.94, -1.45, 12.54, 2.01, 1.66, 7.69, repro,
2006-06-21,-0.11, -1.57, 11.36, 2.05, 1.72, 7.88, repro,
2006-06-22,2.36, -1.84, 7.21, 2.03, 1.68, 7.80, repro,
2006-06-23,1.00, -1.05, 3.37, 2.05, 1.71, 7.85, repro,
2006-06-24,1.26, -1.39, 7.61, 2.01, 1.67, 7.72, repro,
2006-06-25,0.62, 0.22, 7.11, 2.11, 1.81, 8.05, repro,
2006-06-26,1.96, -0.49, 12.03, 2.07, 1.73, 7.95, repro,
2006-06-27,2.31, -3.31, 10.97, 2.13, 1.81, 8.11, repro,
2006-06-28,1.67, 0.68, -0.14, 2.06, 1.73, 7.95, repro,
2006-06-29,2.30, -0.87, 9.44, 2.01, 1.76, 7.81, repro,
2006-06-30,3.44, -2.26, 14.75, 2.03, 1.69, 7.85, repro,
2006-07-01,2.86, -2.30, 13.81, 2.03, 1.68, 7.81, repro,
2006-07-02,2.47, -2.64, 4.61, 2.02, 1.67, 7.75, repro,
2006-07-03,0.99, -0.43, 5.24, 1.98, 1.63, 7.63, repro,
2006-07-04,0.95, -1.34, 2.76, 1.97, 1.63, 7.63, repro,
2006-07-05,1.12, -3.53, 15.20, 1.98, 1.64, 7.69, repro,
2006-07-06,0.51, -1.19, -2.77, 2.00, 1.64, 7.67, repro,
2006-07-07,-0.29, -2.50, 4.25, 1.99, 1.63, 7.66, repro,
2006-07-08,1.42, -2.31, 2.19, 2.01, 1.64, 7.73, repro,
2006-07-09,0.51, -4.55, 13.15, 2.00, 1.66, 7.80, repro,
2006-07-10,1.21, -1.65, 4.16, 1.99, 1.63, 7.64, repro,
2006-07-11,1.34, -1.91, 6.79, 2.00, 1.64, 7.76, repro,
2006-07-12,0.49, -2.19, 9.64, 2.00, 1.63, 7.63, repro,
2006-07-13,0.46, -1.29, 12.10, 2.00, 1.63, 7.69, repro,
2006-07-14,1.33, -1.11, 13.21, 2.01, 1.65, 7.75, repro,
2006-07-15,0.64, -1.49, 6.09, 2.00, 1.64, 7.74, repro,
2006-07-16,2.75, -3.62, 5.66, 1.98, 1.64, 7.73, repro,
2006-07-17,-0.34, -1.74, 7.04, 2.08, 1.74, 8.10, repro,
2006-07-18,0.84, -2.37, 13.09, 1.93, 1.61, 7.37, repro,
2006-07-19,1.71, -2.16, 7.74, 1.93, 1.62, 7.43, repro,
2006-07-20,0.30, -1.43, 6.92, 1.93, 1.62, 7.41, repro,
2006-07-21,0.47, -1.47, 12.32, 2.07, 1.83, 8.20, repro,
2006-07-22,0.71, -0.98, 4.09, 2.10, 1.82, 8.31, repro,
2006-07-23,2.05, -1.28, 15.27, 2.00, 1.72, 7.72, repro,
2006-07-24,1.88, -2.86, 4.99, 1.96, 1.67, 7.51, repro,
2006-07-25,0.87, -2.55, 11.54, 2.01, 1.71, 7.61, repro,
2006-07-26,3.33, -1.56, 8.18, 1.95, 1.66, 7.46, repro,
2006-07-27,2.10, -1.61, 5.79, 1.93, 1.61, 7.40, repro,
2006-07-28,-0.72, -2.29, 6.66, 1.97, 1.67, 7.53, repro,
2006-07-29,0.33, -1.84, 2.32, 1.96, 1.66, 7.51, repro,
2006-07-30,-0.96, -1.30, 11.09, 1.98, 1.66, 7.54, repro,
2006-07-31,-1.46, -1.72, 14.34, 1.92, 1.60, 7.34, repro,
2006-08-01,1.04, -1.25, 14.82, 1.93, 1.61, 7.39, repro,
2006-08-02,1.14, -1.27, 9.49, 1.94, 1.66, 7.60, repro,
2006-08-03,0.67, -1.00, 9.78, 2.00, 1.71, 7.79, repro,
2006-08-04,-0.50, -1.64, 7.28, 2.07, 1.74, 7.92, repro,
2006-08-05,0.33, -1.31, 8.45, 1.99, 1.72, 7.85, repro,
2006-08-06,-0.72, -0.46, 2.56, 1.95, 1.66, 7.63, repro,
2006-08-07,2.62, -0.80, 6.22, 1.95, 1.66, 7.64, repro,
2006-08-08,1.51, -2.17, -0.42, 1.93, 1.62, 7.42, repro,
2006-08-09,0.53, 2.23, 5.14, 1.94, 1.62, 7.42, repro,
2006-08-10,1.78, -0.08, 8.59, 1.93, 1.61, 7.37, repro,
2006-08-11,-0.30, -2.02, 8.32, 1.93, 1.61, 7.39, repro,
2006-08-12,2.36, -2.34, 10.76, 1.97, 1.68, 7.55, repro,
2006-08-13,1.24, -1.62, 10.50, 1.96, 1.67, 7.52, repro,
2006-08-14,1.33, -1.83, 12.72, 1.97, 1.68, 7.58, repro,
2006-08-15,-0.89, -0.93, 5.90, 2.04, 1.69, 7.69, repro,
2006-08-16,1.89, -1.36, 8.29, 1.97, 1.68, 7.56, repro,
2006-08-17,1.39, -0.55, 7.12, 2.03, 1.70, 7.73, repro,
2006-08-18,0.34, -1.81, 9.85, 1.98, 1.72, 7.66, repro,
2006-08-19,1.02, -1.68, 0.57, 1.92, 1.61, 7.34, repro,
2006-08-20,0.61, -1.31, 8.34, 1.91, 1.61, 7.30, repro,
2006-08-21,0.95, 0.27, 3.71, 1.93, 1.65, 7.45, repro,
2006-08-22,-0.73, -0.04, 6.01, 1.94, 1.65, 7.48, repro,
2006-08-23,0.90, -1.41, 11.02, 1.94, 1.65, 7.46, repro,
2006-08-24,0.66, -1.45, 18.22, 1.93, 1.64, 7.41, repro,
2006-08-25,1.89, -1.82, 21.99, 1.97, 1.68, 7.65, repro,
2006-08-26,1.57, -1.25, 8.75, 1.99, 1.71, 7.77, repro,
2006-08-27,1.66, -1.05, 8.37, 1.99, 1.73, 7.82, repro,
2006-08-28,0.41, -0.87, 6.42, 1.99, 1.74, 7.85, repro,
2006-08-29,2.04, -1.60, 3.03, 1.99, 1.72, 7.81, repro,
2006-08-30,2.54, -2.40, 5.16, 2.07, 1.74, 8.06, repro,
2006-08-31,0.45, -1.40, 7.41, 1.99, 1.72, 7.76, repro,
2006-09-01,1.65, -0.38, 7.26, 2.03, 1.77, 8.01, repro,
2006-09-02,1.37, -1.45, 8.26, 1.99, 1.74, 7.87, repro,
2006-09-03,1.82, -1.61, 3.86, 1.99, 1.73, 7.82, repro,
2006-09-04,1.84, -1.17, 2.54, 2.07, 1.76, 8.06, repro,
2006-09-05,2.44, -1.57, 3.83, 2.06, 1.77, 8.01, repro,
2006-09-06,2.26, -0.31, -4.77, 1.99, 1.73, 7.84, repro,
2006-09-07,2.15, -1.27, 10.63, 2.07, 1.84, 8.31, repro,
2006-09-08,1.38, -0.88, 10.26, 2.04, 1.79, 8.06, repro,
2006-09-09,2.26, -0.93, 7.63, 2.01, 1.76, 7.75, repro,
2006-09-10,1.86, -1.87, 10.52, 1.97, 1.69, 7.56, repro,
2006-09-11,2.31, 0.09, 1.08, 1.96, 1.69, 7.58, repro,
2006-09-12,2.85, -1.48, 6.03, 1.96, 1.69, 7.60, repro,
2006-09-13,1.67, -0.49, 10.45, 1.96, 1.70, 7.62, repro,
2006-09-14,0.53, -1.39, 5.99, 2.07, 1.77, 7.90, repro,
2006-09-15,1.45, 0.07, 6.73, 2.02, 1.67, 7.64, repro,
2006-09-16,2.77, -1.41, 8.20, 1.94, 1.64, 7.46, repro,
2006-09-17,2.02, -1.22, 7.40, 1.94, 1.65, 7.49, repro,
2006-09-18,1.83, -1.34, 10.83, 1.94, 1.64, 7.45, repro,
2006-09-19,2.30, -2.02, 12.65, 1.93, 1.64, 7.39, repro,
2006-09-20,1.19, -0.83, 9.05, 1.93, 1.64, 7.42, repro,
2006-09-21,1.53, -2.03, 9.76, 1.96, 1.69, 7.59, repro,
2006-09-22,3.28, -2.29, 11.62, 2.06, 1.75, 7.92, repro,
2006-09-23,3.65, -3.09, 10.74, 2.05, 1.71, 7.82, repro,
2006-09-24,3.89, -1.66, 6.67, 2.12, 1.78, 8.25, repro,
2006-09-25,2.20, -0.70, 14.05, 2.07, 1.73, 7.93, repro,
2006-09-26,0.09, -0.70, 11.04, 1.99, 1.67, 7.55, repro,
2006-09-27,2.12, -0.32, 9.06, 2.08, 1.77, 7.94, repro,
2006-09-28,2.26, -1.29, 10.37, 2.07, 1.79, 7.92, repro,
2006-09-29,2.41, -1.37, 11.95, 2.02, 1.71, 7.71, repro,
2006-09-30,3.21, -2.09, 13.74, 1.98, 1.69, 7.64, repro,
2006-10-01,1.47, -0.85, 11.31, 1.99, 1.69, 7.69, repro,
2006-10-02,2.37, 2.28, 8.97, 2.02, 1.74, 7.72, repro,
2006-10-03,-2.40, -4.44, -7.10, 2.09, 1.82, 8.02, repro,
2006-10-04,-0.59, -1.15, 7.77, 2.00, 1.67, 7.59, repro,
2006-10-05,-3.08, -2.36, 3.80, 2.04, 1.71, 7.99, repro,
2006-10-06,1.84, -1.74, 6.75, 2.03, 1.71, 7.94, repro,
2006-10-07,2.31, -1.29, -0.26, 2.06, 1.84, 8.29, repro,
2006-10-08,2.06, -1.39, 2.15, 2.03, 1.74, 7.99, repro,
2006-10-09,1.57, -1.98, 1.30, 2.14, 1.79, 8.34, repro,
2006-10-10,0.96, -3.09, 0.05, 1.99, 1.71, 7.81, repro,
2006-10-11,1.99, -1.85, 11.94, 2.00, 1.75, 7.91, repro,
2006-10-12,-1.31, -0.19, 14.07, 2.00, 1.69, 7.72, repro,
2006-10-13,-2.91, -2.63, 13.06, 2.04, 1.76, 8.09, repro,
2006-10-14,2.39, -2.08, 9.47, 1.93, 1.67, 7.56, repro,
2006-10-15,1.71, -2.51, 16.23, 1.98, 1.72, 7.83, repro,
2006-10-16,2.40, -2.22, 17.54, 1.96, 1.69, 7.70, repro,
2006-10-17,0.40, -1.70, 9.89, 2.13, 1.77, 8.42, repro,
2006-10-18,2.66, -0.62, 6.98, 2.06, 1.84, 8.32, repro,
2006-10-19,1.87, -1.91, 9.27, 2.22, 1.82, 8.63, repro,
2006-10-20,3.28, -1.86, 12.49, 2.29, 2.02, 9.78, repro,
2006-10-21,2.30, -3.71, 14.40, 2.18, 1.88, 8.78, repro,
2006-10-22,1.80, -3.04, 10.83, 1.99, 1.76, 7.88, repro,
2006-10-23,1.62, -2.51, 5.56, 2.10, 1.81, 8.30, repro,
2006-10-24,1.85, -1.66, 8.82, 2.12, 1.79, 8.33, repro,
2006-10-25,0.97, -1.57, 5.00, 2.21, 1.95, 8.88, repro,
2006-10-26,3.16, -1.59, 12.37, 1.99, 1.80, 7.91, repro,
2006-10-27,3.27, -0.99, 3.76, 1.95, 1.78, 7.93, repro,
2006-10-28,2.40, -2.37, 7.36, 2.12, 1.81, 8.49, repro,
2006-10-29,1.01, -1.55, 12.05, 1.95, 1.72, 7.67, repro,
2006-10-30,0.99, -1.51, 11.00, 1.92, 1.71, 7.59, repro,
2006-10-31,0.68, -1.94, 11.23, 1.95, 1.73, 7.72, repro,
2006-11-01,1.21, -1.01, 10.20, 1.93, 1.69, 7.60, repro,
2006-11-02,2.93, -1.61, 12.12, 1.92, 1.68, 7.56, repro,
2006-11-03,-0.36, 1.03, 16.15, 1.96, 1.74, 7.74, repro,
2006-11-04,2.11, -1.36, 7.73, 1.98, 1.73, 7.72, repro,
2006-11-05,1.40, -2.46, 3.65, 2.06, 1.81, 8.18, repro,
2006-11-06,2.31, -2.08, 4.75, 1.92, 1.69, 7.58, repro,
2006-11-07,3.23, -1.17, 9.31, 2.01, 1.81, 8.14, repro,
2006-11-08,1.92, -2.39, 17.36, 2.01, 1.75, 7.95, repro,
2006-11-09,0.33, -2.88, 11.84, 2.01, 1.81, 8.10, repro,